This is the latest recevied weather packets stored in our database for station/object KF0WJA. If no packets are shown the sender has not sent any weather packets the latest 10 day(s).
| Time | Temp. | Humidity | Pressure | Rain* | Wind** | Luminosity | Snow |
|---|---|---|---|---|---|---|---|
| 1788192054 | 33.89° C | 44% | 1018.6 hPa | 0 mm | - | 608 W/m² | - |
| 1788191753 | 33.33° C | 44% | 1018.5 hPa | 0 mm | - | 596 W/m² | - |
| 1788191449 | 33.33° C | 45% | 1018.4 hPa | 0 mm | - | 570 W/m² | - |
| 1788191145 | 33.33° C | 43% | 1018.6 hPa | 0 mm | - | 556 W/m² | - |
| 1788190845 | 32.78° C | 46% | 1018.4 hPa | 0 mm | - | 558 W/m² | - |
| 1788190544 | 33.33° C | 45% | 1018.6 hPa | 0 mm | - | 551 W/m² | - |
| 1788190241 | 32.78° C | 45% | 1018.4 hPa | 0 mm | - | 501 W/m² | - |
| 1788189936 | 33.33° C | 45% | 1018.4 hPa | 0 mm | - | 498 W/m² | - |
| 1788189632 | 32.22° C | 46% | 1018.5 hPa | 0 mm | - | 456 W/m² | - |
| 1788189331 | 32.78° C | 46% | 1018.4 hPa | 0 mm | - | 437 W/m² | - |
| 1788189031 | 32.22° C | 46% | 1018.6 hPa | 0 mm | - | 422 W/m² | - |
| 1788188726 | 32.22° C | 46% | 1018.3 hPa | 0 mm | - | 392 W/m² | - |
| 1788188423 | 32.22° C | 46% | 1018.4 hPa | 0 mm | - | 359 W/m² | - |
| 1788188117 | 31.67° C | 46% | 1018.3 hPa | 0 mm | - | 335 W/m² | - |
| 1788187813 | 31.11° C | 48% | 1018.4 hPa | 0 mm | - | 335 W/m² | - |
| 1788187508 | 31.67° C | 48% | 1018.5 hPa | 0 mm | - | 253 W/m² | - |
| 1788187203 | 31.11° C | 48% | 1018.4 hPa | 0 mm | - | 331 W/m² | - |
| 1788186898 | 31.11° C | 48% | 1018.3 hPa | 0 mm | - | 283 W/m² | - |
| 1788186594 | 31.11° C | 48% | 1018.3 hPa | 0 mm | - | 271 W/m² | - |
| 1788186290 | 30.56° C | 48% | 1018.3 hPa | 0 mm | - | 279 W/m² | - |
| 1788185984 | 30.56° C | 49% | 1018.2 hPa | 0 mm | - | 239 W/m² | - |
| 1788185684 | 29.44° C | 50% | 1018 hPa | 0 mm | - | 218 W/m² | - |
| 1788185379 | 29.44° C | 52% | 1018.2 hPa | 0 mm | - | 186 W/m² | - |
| 1788185079 | 28.89° C | 52% | 1018.3 hPa | 0 mm | - | 180 W/m² | - |
| 1788184778 | 28.89° C | 53% | 1018.3 hPa | 0 mm | - | 184 W/m² | - |
* Rain latest hour (hover to see other rain measurements)
** Current wind speed in m/s (hover to see current wind gust speed)